Location: *
(55.6049°S, 142.1985°W)
Time: 10:13:30
(UTC+00:00)

USA 305 - Pass Details

Date: 12 May 2021
Orbit: 567 x 573 km, 54.0° (Epoch: 07 May)

Event Time Altitude Azimuth Distance (km) Brightness Sun altitude
Exits shadow 16:19:01 - 272° (W) 2,092 5.2 -7.7°
Reaches altitude 10° 16:19:29 10° 273° (W) 1,906 5.0 -7.7°
Maximum altitude 16:23:49 72° 356° (N) 618 3.1 -7.1°
Drops below altitude 10° 16:28:08 10° 80° (E) 1,901 7.2 -6.5°
Sets 16:30:24 0° 81° (E) 2,798 8.3 -6.2°
